Weather in Voyutino

Russia / Vladimir Oblast     55°15′03″N   41°49′57″E
temp.,
°C
wind,
m/s
gust,
m/s
humid.,
%
clouds,
%
prec.,
mm/h
press.,
hPa
HPBL,
m
2 july, sat
sat200:00+9n488310 0.0 1020145
03:00+9n412855 0.0 1020235
06:00+12n511758 0.0 1020307
09:00+18nne68535 0.0 1020836
12:00+21nne68410 0.0 10191727
15:00+23nne68405 0.0 10182093
18:00+22nne585151 0.0 1016701
21:00+16n22705 0.0 101611
3 july, sun
sun300:00+15nnw34745 0.0 101665
03:00+16nnw347492 0.1 101576
06:00+16wnw237895 0.2 101489
09:00+22nne34606 0.2 1013682
12:00+25nne675163 0.1 10132120
15:00+24ne68516 0.1 10141434
18:00+23ne47575 0.0 10141367
21:00+17ne22760 0.0 101513
4 july, mon
mon400:00+15nnw22863 0.0 101611
03:00+13n33885 0.0 101633
06:00+16nne2378100 0.0 1016118
09:00+21nne235877 0.0 1016607
12:00+24nne3446100 0.0 10161853
15:00+26nne45405 0.0 10152041
18:00+25ne24475 0.0 10151133
21:00+19wnw015722 0.0 101511
5 july, tue
tue500:00+17w226035 0.0 101611
03:00+18nw225861 0.0 101641
06:00+19wnw246628 0.0 1016123
09:00+25nnw12505 0.0 1016621
12:00+28ene23385 0.0 10162185
15:00+28e323795 0.0 10151635
18:00+25wsw3451100 0.0 101578
21:00+21w386874 0.0 1015154
6 july, wed
wed600:00+18wsw2284100 0.4 101612
03:00+17sw2295100 1.7 101644
06:00+19sw369295 0.9 1016199
09:00+24sw4570100 0.9 1015512
12:00+28sw4551100 0.0 10151623
15:00+27sw694926 0.0 1014479
18:00+26ssw476194 0.2 10141150
21:00+20ssw4109457 4.1 1014222